Regional Weather Roundup
Issued by NWS

Home | Current Version | Previous Version | Graphics & Text | Print | Product List | Glossary On
Versions: 1 2 3 4 5 6 7 8 9 10 11 12 13 14 15 16 17 18 19 20 21 22 23 24 25 26 27 28 29 30 31 32 33 34 35 36 37 38 39 40 41 42 43 44 45 46 47 48 49 50
000
ASUS45 KBOU 122210
RWRCO

WEATHER ROUNDUP FOR COLORADO
NATIONAL WEATHER SERVICE DENVER/BOULDER CO
400 PM MDT SAT JUL 12 2014

NOTE: "FAIR" INDICATES FEW OR NO CLOUDS BELOW 12000 FEET WITH NO
SIGNIFICANT WEATHER AND/OR OBSTRUCTIONS TO VISIBILITY.

COZ001>005-013-030-031-122300-
...NORTHWEST COLORADO...

CITY           SKY/WX    TMP DP  RH WIND       PRES   REMARKS
CRAIG          MOSUNNY   79  52  38 VRB3      30.28F
HAYDEN         SUNNY     82  46  28 CALM      30.30F
MEEKER         MOSUNNY   83  49  30 VRB3      30.28F
MOUNT WERNER   NOT AVBL
STEAMBOAT SPGS MOSUNNY   78  51  39 CALM      30.33F
WALDEN         PTSUNNY   66  50  55 NW6       30.45S
$$

COZ006>008-011-122300-
...WEST CENTRAL VALLEYS...

CITY           SKY/WX    TMP DP  RH WIND       PRES   REMARKS
GRAND JUNCTION MOSUNNY   95  48  20 W12       30.10F
MONTROSE       MOSUNNY   92  43  18 N8        30.19F
EAGLE          MOSUNNY   82  52  34 NW14      30.30S
RIFLE          PTSUNNY   85  48  27 W7        30.18F
DELTA          MOSUNNY   96  45  17 E5        30.13F
NUCLA          MOSUNNY   91  39  16 W8G18     30.23F
$$

COZ017>023-064>068-122300-
...SOUTHWEST COLORADO...

CITY           SKY/WX    TMP DP  RH WIND       PRES   REMARKS
DURANGO        CLOUDY    78  51  38 N18G28    30.31R
CORTEZ         PTSUNNY   82  53  36 SE12      30.22S
PAGOSA SPRINGS CLOUDY    64  49  57 N14G22    30.40F
TELLURIDE      PTSUNNY   70  45  40 CALM      30.48S
WOLF CREEK PAS NOT AVBL
$$

COZ009-010-012-014-032>034-037-058>063-122300-
...CENTRAL COLORADO...

CITY           SKY/WX    TMP DP  RH WIND       PRES   REMARKS
ASPEN          MOSUNNY   80  46  30 W14       30.35F
BUENA VISTA    PTSUNNY   77  40  26 S6        30.37F
COPPER MTN     MOSUNNY   61  41  48 W24G30    30.71F
BERTHOUD PASS  PTSUNNY   50  36  57 N6        30.78F
COTTONWOOD PAS CLOUDY    70  41  35 SW5       30.54F
GUNNISON       PTSUNNY   81  45  28 SW9       30.36F
KREMMLING      PTSUNNY   77  50  38 W9        30.37F
LEADVILLE      PTSUNNY   72  41  32 N18G24    30.51F
MONARCH PASS   CLOUDY    50  41  71 N15G21    30.83S
SALIDA         PTSUNNY   80  44  28 SE17      30.43R
SUNLIGHT       MOSUNNY   68  50  52 NW3       30.65F
WILKERSON PASS TSTM      46  45  93 S13G22    30.71R
$$

COZ069>075-122300-
...SAN LUIS VALLEY/SANGRE DE CRISTO MOUNTAINS...

CITY           SKY/WX    TMP DP  RH WIND       PRES   REMARKS
ALAMOSA        MOSUNNY   79  43  27 E20G29    30.34R
LA VETA PASS   TSTM      54  48  82 W6        30.63R
SAGUACHE       NOT AVBL
$$

COZ035-036-038>040-122300-
...NORTHERN COLORADO FRONT RANGE...

CITY           SKY/WX    TMP DP  RH WIND       PRES   REMARKS
DENVER INTL AP PTSUNNY   85  58  39 N14G20    30.24F
DMNS CITY PARK   N/A     83  57  39 N7        30.25S
AURORA         NOT AVBL
FRONT RANGE AP NOT AVBL
ERIE MUNI ARPT CLOUDY    80  56  44 N14       30.24F
BOULDER MUN AP RAIN      73  61  64 NW8       30.27S
CENTENNIAL     PTSUNNY   79  57  46 N9        30.28F
BROOMFIELD     PTSUNNY   81  55  41 VRB5      30.29S
FORT COLLINS   PTSUNNY   72  66  83 N15G22    30.29R THUNDER
LONGMONT       DRIZZLE   78  62  59 NW8       30.27R
$$

COZ041-046-047-076>085-087-088-122300-
...PIKES PEAK/PALMER DIVIDE AND SOUTHERN FOOTHILLS...

CITY           SKY/WX    TMP DP  RH WIND       PRES   REMARKS
COLO. SPRINGS  CLOUDY    72  62  71 NE6       30.33R
A. F. ACADEMY  NOT AVBL
ELLICOTT       CLOUDY    74  60  61 N9        30.30  THUNDER
FALCON         DRIZZLE   68  59  73 NE8       30.38R
FORT CARSON    NOT AVBL
LIMON          MOSUNNY   81  56  42 N13       30.25S
MONUMENT HILL  CLOUDY    73  52  46 E13       30.37R
TRINIDAD       MOSUNNY   91  42  18 NE13      30.16F
$$

COZ042>045-048>051-090-091-122300-
...NORTHEAST COLORADO...

CITY           SKY/WX    TMP DP  RH WIND       PRES   REMARKS
GREELEY ARPT   NOT AVBL
AKRON          PTSUNNY   81  61  50 N14       30.21F
BURLINGTON     MOSUNNY   84  63  49 NE14G22   30.17S
WRAY           MOSUNNY   84  62  47 N9        30.14F
STERLING       MOSUNNY   86  64  48 NE12      30.17S
HOLYOKE        PTSUNNY   84  59  42 NE9G20    30.15F
FORT MORGAN    MOSUNNY   85  56  36 N12G18    30.21S
$$

COZ086-089-092>099-122300-
...SOUTHEAST COLORADO...

CITY           SKY/WX    TMP DP  RH WIND       PRES   REMARKS
PUEBLO         MOSUNNY   79  59  50 N41G52    30.16R
LA JUNTA       PTSUNNY   94  58  29 E16       30.09F
LAMAR          MOSUNNY   97  57  26 MISG      30.05F
SPRINGFIELD      N/A     93  52  24 S7        30.09F
$$


USA.gov is the U.S. government's official web portal to all federal, state and local government web resources and services.